Weather History for Russellville, AR

Change the Weather History Date:

Saturday, June 16, 2012

  Actual Average (KHOT) Record (KHOT)
Temperature  
Mean Temperature 80 °F -  
Max Temperature 96 °F 89 °F 101 °F (1953)
Min Temperature 66 °F 65 °F 49 °F (1989)
Cooling Degree Days 16    
Growing Degree Days 30 (Base 50)    
Moisture  
Dew Point 67 °F    
Average Humidity 66    
Maximum Humidity 97    
Minimum Humidity 36    
Precipitation  
Precipitation 0.00 in - - ()
Sea Level Pressure  
Sea Level Pressure 30.02 in    
Wind  
Wind Speed 2 mph (SSW)    
Max Wind Speed 8 mph    
Max Gust Speed 16 mph    
Visibility 9 miles    
Events      
Averages and records for this station are not official NWS values.
T = Trace of Precipitation, MM = Missing Value Source: NWS Daily Summary

Daily Weather History Graph

Daily Weather History Graph

Search for Another Location

Airport:

Trip Planner

Search our weather history database for the weather conditions in past years. The results will help you decide how hot, cold, wet, or windy it might be!

Date:

Astronomy

Jun. 16, 2012 Rise Set
Actual Time 5:57 AM CDT 8:29 PM CDT
Civil Twilight 5:27 AM CDT 8:59 PM CDT
Nautical Twilight 4:50 AM CDT 9:35 PM CDT
Astronomical Twilight 4:09 AM CDT 10:16 PM CDT
Moon 3:43 AM CDT (6/16) 6:07 PM CDT (6/16)
Length of Visible Light 15h 31m
Length of Day
14h 31m
Waning Crescent, 8% of the Moon is Illuminated
Jun 16
Waning Crescent
Jun 19
New
Jun 26
First Quarter
Jul 3
Full
Jul 10
Last Quarter

Hourly Weather History & Observations

Time (CDT) Temp. Heat Index Dew Point Humidity Pressure Visibility Wind Dir Wind Speed Gust Speed Precip Events Conditions
12:53 AM 70.0 °F - 68.0 °F 93% 30.01 in 10.0 mi Calm Calm - N/A   Clear
1:53 AM 69.1 °F - 66.9 °F 93% 29.99 in 8.0 mi Calm Calm - N/A   Clear
2:53 AM 70.0 °F - 68.0 °F 93% 30.02 in 10.0 mi Calm Calm - N/A   Clear
3:53 AM 69.1 °F - 68.0 °F 96% 30.02 in 5.0 mi Calm Calm - N/A   Clear
4:53 AM 69.1 °F - 66.9 °F 93% 30.02 in 6.0 mi Calm Calm - N/A   Clear
5:53 AM 66.9 °F - 66.0 °F 97% 30.03 in 5.0 mi Calm Calm - N/A   Clear
6:53 AM 69.1 °F - 66.9 °F 93% 30.05 in 7.0 mi Calm Calm - N/A   Clear
7:53 AM 73.9 °F - 68.0 °F 82% 30.09 in 10.0 mi Calm Calm - N/A   Clear
8:53 AM 78.1 °F - 69.1 °F 74% 30.09 in 10.0 mi Calm Calm - N/A   Clear
9:53 AM 82.9 °F 86.5 °F 69.1 °F 63% 30.09 in 10.0 mi Variable 3.5 mph - N/A   Clear
10:53 AM 84.9 °F 88.8 °F 69.1 °F 59% 30.08 in 10.0 mi Variable 6.9 mph - N/A   Clear
11:53 AM 89.1 °F 92.9 °F 68.0 °F 50% 30.06 in 10.0 mi Variable 4.6 mph - N/A   Partly Cloudy
12:53 PM 91.0 °F 93.8 °F 66.0 °F 44% 30.05 in 10.0 mi Variable 4.6 mph 16.1 mph N/A   Partly Cloudy
1:53 PM 91.9 °F 95.4 °F 66.9 °F 44% 30.03 in 10.0 mi Variable 4.6 mph - N/A   Partly Cloudy
2:53 PM 93.0 °F 95.9 °F 66.0 °F 41% 30.02 in 10.0 mi Variable 3.5 mph - N/A   Partly Cloudy
3:53 PM 95.0 °F 97.0 °F 64.0 °F 36% 30.00 in 10.0 mi SW 4.6 mph - N/A   Scattered Clouds
4:53 PM 93.9 °F 95.6 °F 64.0 °F 37% 29.97 in 10.0 mi South 8.1 mph - N/A   Clear
5:53 PM 93.9 °F 96.1 °F 64.9 °F 38% 29.97 in 10.0 mi SSW 6.9 mph - N/A   Scattered Clouds
6:53 PM 91.9 °F 94.1 °F 64.9 °F 41% 29.96 in 10.0 mi Variable 4.6 mph - N/A   Clear
7:53 PM 87.1 °F 89.2 °F 66.0 °F 49% 29.96 in 10.0 mi SW 5.8 mph - N/A   Scattered Clouds
8:53 PM 84.0 °F 86.5 °F 66.9 °F 56% 29.99 in 10.0 mi Variable 3.5 mph - N/A   Scattered Clouds
9:53 PM 81.0 °F 83.8 °F 68.0 °F 65% 30.01 in 10.0 mi Variable 3.5 mph - N/A   Clear
10:53 PM 75.9 °F - 68.0 °F 76% 30.03 in 10.0 mi Calm Calm - N/A   Clear
11:53 PM 73.9 °F - 68.0 °F 82% 30.02 in 10.0 mi Calm Calm - N/A   Clear